LANDSAT 8 (39084 NORAD) Tracking and Keplerian Element Data

This shows tracking and keplerian element data for the satellite.

Feedback or suggestion? Click here.




ElementValue
Catalog39084
NameLANDSAT 8
Epoch Orbit60210
Epoch Day160.20920778
Epoch Year2024
RAAN229.9231
Inclination98.2291
Eccentricity0.0001206
Argument of Perigee87.2035
Mean Anonmoly272.9301
Mean Motion14.57112799
Decay Rate8.84E-06
L11 39084U 13008A 24160.20920778 .00000884 00000+0 20620-3 0 9996
L22 39084 98.2291 229.9231 0001206 87.2035 272.9301 14.57112799602108



Live tracking and technical data element details for LANDSAT 8 (NORAD 39084). LANDSAT 8 can be tracked NOW for your location showing map with azimuth and elevation plus other details from your city location.







IsCatalogInMostPopularTable: catalog: 39084, numindb: 642
Update: records affected: 1



GetName: 39084 LANDSAT 8

Hit Count: updated at: Sun, 23 Jun 2024 01:40:27 GMT